Weather in Harrachov

Czech Republic     50°46′29″N   15°25′32″E
temp.,
°C
wind,
m/s
gust,
m/s
humid.,
%
clouds,
%
prec.,
mm/h
press.,
hPa
HPBL,
m
10 may, mon
mon1023:00+8sse489594 0.0 1014263
02:00+7sse4119760 0.0 1012414
05:00+6sse4148135 0.0 1013531
08:00+9sse510719 0.0 1012505
11:00+14sse47627 0.0 1011576
14:00+17s45585 0.0 1011780
17:00+18s45614 0.0 1011856
20:00+13se258924 0.0 1012115
11 may, tue
tue1123:00+11se23966 0.0 101276
02:00+10sse249790 0.0 101193
05:00+9sse369764 0.0 1009178
08:00+12sse498322 0.0 1008530
11:00+16sse486398 0.0 1007857
14:00+19sse595843 0.0 10061185
17:00+19s696156 0.0 10051132
20:00+15sse310817 0.0 1006567
12 may, wed
wed1223:00+13se4129046 0.0 1006661
02:00+12sse3119755 0.0 1005470
05:00+11sse369987 0.0 1005256
08:00+13sse239698 0.0 1005266
11:00+17se246950 0.3 10041054
14:00+18ese247011 3.0 10031117
17:00+16ne238189 4.3 1002588
20:00+11n3499100 14.9 1002255
13 may, thu
thu1323:00+10nne1499100 4.6 1002387
02:00+9n1299100 5.3 1001145
05:00+10nne2299100 0.2 1000193
08:00+10ene1199100 1.1 1000206
11:00+9ese1199100 1.2 1000297
14:00+8se1198100 3.5 1001220
17:00+8w0198100 3.4 1002166
20:00+8wnw1199100 7.8 1002105
14 may, fri
fri1423:00+8wnw1199100 3.9 1003105
02:00+7wnw1299100 7.9 1003190
05:00+6nw2499100 4.1 1004242
08:00+6wnw2499100 5.8 1005218
11:00+7w1399100 2.0 1007280
14:00+8w1297100 2.9 1008488
17:00+9wnw138996 0.2 1009596
20:00+8wnw119083 0.4 101025